QPF
0.05 0.02 0.01 0.01 0.01 0.01 0.01 0.01 0.01 0.01 0.01 0.05 0.07 0.20 0.31 0.28 0.32 0.07 0.05 0.02 0.06 0.04 0.04 0.01 0.01 0.01 0.01 0.01 0.04 0.03 0.05 0.04 0.03 0.02 0.01 0.00 0.00 0.00 0.00 0.00 0.00 0.00 0.00 0.00 0.00 0.02 0.00 0.00 0.00 0.00 0.00 0.00 0.00 0.00
0.12 0.08 0.02 0.01 0.01 0.01 0.00 0.01 0.01 0.01 0.01 0.03 0.06 0.12 0.19 0.29 0.17 0.03 0.03 0.04 0.04 0.06 0.06 0.01 0.01 0.01 0.01 0.00 0.00 0.02 0.02 0.01 0.01 0.01 0.00 0.00 0.01 0.01 0.02 0.01 0.00 0.00 0.00 0.01 0.00 0.00 0.00 0.00 0.00 0.00 0.00 0.00 0.00 0.00
0.07 0.11 0.04 0.01 0.01 0.00 0.00 0.01 0.01 0.01 0.01 0.01 0.05 0.08 0.07 0.16 0.12 0.01 0.01 0.01 0.03 0.04 0.03 0.01 0.01 0.00 0.00 0.00 0.00 0.03 0.02 0.00 0.00 0.00 0.00 0.00 0.00 0.01 0.02 0.01 0.00 0.00 0.00 0.00 0.00 0.00 0.00 0.00 0.00 0.00 0.00 0.00 0.00 0.00
0.03 0.07 0.09 0.01 0.01 0.00 0.00 0.00 0.01 0.01 0.01 0.02 0.03 0.06 0.04 0.06 0.05 0.00 0.00 0.00 0.01 0.01 0.05 0.03 0.00 0.00 0.00 0.01 0.00 0.01 0.02 0.01 0.01 0.01 0.01 0.01 0.01 0.00 0.00 0.00 0.00 0.00 0.00 0.00 0.00 0.00 0.00 0.00 0.00 0.00 0.00 0.00 0.00 0.00
0.01 0.05 0.10 0.03 0.01 0.00 0.00 0.00 0.00 0.01 0.02 0.02 0.02 0.03 0.03 0.04 0.01 0.01 0.01 0.01 0.01 0.02 0.02 0.01 0.00 0.00 0.00 0.00 0.01 0.00 0.00 0.03 0.04 0.05 0.02 0.00 0.00 0.02 0.03 0.01 0.00 0.00 0.00 0.00 0.00 0.00 0.00 0.00 0.00 0.00 0.00 0.00 0.00 0.00
0.01 0.03 0.10 0.04 0.01 0.00 0.00 0.00 0.00 0.02 0.03 0.02 0.02 0.02 0.03 0.03 0.01 0.02 0.07 0.12 0.02 0.02 0.02 0.02 0.01 0.00 0.00 0.00 0.00 0.01 0.02 0.03 0.07 0.08 0.05 0.02 0.02 0.04 0.02 0.00 0.00 0.00 0.00 0.00 0.00 0.00 0.00 0.00 0.00 0.00 0.00 0.00 0.00 0.00
0.01 0.04 0.08 0.03 0.01 0.00 0.00 0.00 0.01 0.02 0.03 0.03 0.02 0.03 0.04 0.03 0.03 0.03 0.04 0.05 0.01 0.00 0.01 0.01 0.01 0.00 0.00 0.00 0.01 0.06 0.04 0.03 0.06 0.06 0.04 0.03 0.04 0.04 0.02 0.01 0.00 0.00 0.00 0.00 0.00 0.00 0.00 0.00 0.00 0.00 0.00 0.00 0.00 0.00
0.02 0.05 0.05 0.03 0.00 0.00 0.01 0.01 0.01 0.02 0.03 0.02 0.04 0.09 0.09 0.14 0.11 0.05 0.00 0.00 0.00 0.00 0.00 0.00 0.02 0.02 0.01 0.01 0.03 0.05 0.04 0.06 0.12 0.06 0.06 0.02 0.05 0.05 0.02 0.00 0.00 0.00 0.00 0.00 0.00 0.00 0.00 0.00 0.00 0.00 0.00 0.00 0.00 0.00
0.04 0.06 0.05 0.01 0.01 0.01 0.01 0.01 0.02 0.02 0.10 0.10 0.22 0.24 0.29 0.22 0.13 0.05 0.00 0.01 0.03 0.02 0.01 0.00 0.00 0.02 0.03 0.04 0.03 0.04 0.04 0.07 0.11 0.13 0.05 0.05 0.06 0.02 0.00 0.00 0.00 0.00 0.00 0.00 0.00 0.00 0.00 0.00 0.00 0.00 0.00 0.00 0.00 0.00
0.06 0.04 0.01 0.01 0.01 0.00 0.01 0.01 0.02 0.18 0.24 0.23 0.33 0.21 0.22 0.10 0.02 0.01 0.03 0.04 0.03 0.02 0.01 0.00 0.00 0.04 0.03 0.02 0.03 0.04 0.14 0.09 0.06 0.05 0.06 0.04 0.01 0.00 0.00 0.00 0.00 0.00 0.00 0.00 0.00 0.00 0.00 0.00 0.00 0.00 0.00 0.00 0.00 0.00
0.01 0.01 0.00 0.00 0.00 0.00 0.00 0.03 0.19 0.18 0.07 0.12 0.09 0.06 0.06 0.03 0.03 0.02 0.01 0.02 0.01 0.01 0.00 0.00 0.00 0.02 0.02 0.04 0.07 0.07 0.08 0.09 0.07 0.04 0.02 0.02 0.00 0.00 0.00 0.00 0.00 0.00 0.00 0.00 0.00 0.00 0.00 0.00 0.00 0.00 0.00 0.00 0.00 0.00
0.01 0.01 0.00 0.00 0.00 0.00 0.01 0.06 0.04 0.01 0.02 0.00 0.00 0.01 0.02 0.01 0.02 0.01 0.02 0.01 0.00 0.00 0.00 0.00 0.00 0.03 0.03 0.01 0.03 0.10 0.10 0.03 0.05 0.02 0.02 0.01 0.00 0.00 0.00 0.00 0.00 0.00 0.00 0.00 0.00 0.00 0.00 0.00 0.00 0.00 0.00 0.00 0.00 0.00
0.00 0.00 0.00 0.00 0.00 0.00 0.00 0.00 0.00 0.00 0.00 0.00 0.01 0.01 0.01 0.01 0.01 0.00 0.02 0.00 0.01 0.00 0.00 0.00 0.01 0.02 0.01 0.00 0.02 0.04 0.04 0.03 0.01 0.02 0.01 0.00 0.00 0.00 0.00 0.00 0.00 0.00 0.00 0.00 0.00 0.00 0.00 0.00 0.00 0.00 0.00 0.00 0.00 0.00
0.00 0.00 0.00 0.00 0.00 0.00 0.00 0.00 0.00 0.01 0.02 0.04 0.02 0.00 0.01 0.01 0.00 0.01 0.03 0.04 0.03 0.02 0.00 0.00 0.01 0.01 0.01 0.01 0.03 0.03 0.02 0.00 0.01 0.01 0.00 0.00 0.00 0.00 0.00 0.00 0.00 0.00 0.00 0.00 0.00 0.00 0.00 0.00 0.00 0.00 0.00 0.00 0.00 0.00
0.00 0.00 0.00 0.00 0.00 0.00 0.00 0.00 0.00 0.02 0.05 0.04 0.01 0.01 0.00 0.01 0.00 0.00 0.00 0.00 0.00 0.02 0.02 0.02 0.02 0.04 0.03 0.03 0.01 0.02 0.00 0.00 0.00 0.00 0.00 0.00 0.00 0.00 0.00 0.00 0.00 0.00 0.00 0.00 0.00 0.00 0.00 0.00 0.00 0.00 0.00 0.00 0.00 0.00
0.00 0.00 0.00 0.00 0.00 0.00 0.00 0.01 0.00 0.00 0.00 0.00 0.01 0.03 0.01 0.01 0.01 0.00 0.00 0.00 0.00 0.03 0.05 0.04 0.03 0.04 0.06 0.01 0.00 0.00 0.00 0.00 0.00 0.00 0.00 0.00 0.00 0.00 0.00 0.00 0.00 0.00 0.00 0.00 0.00 0.00 0.00 0.00 0.00 0.00 0.00 0.00 0.00 0.00
0.00 0.00 0.00 0.01 0.01 0.01 0.00 0.01 0.00 0.00 0.00 0.00 0.01 0.01 0.01 0.01 0.01 0.00 0.00 0.00 0.01 0.03 0.03 0.02 0.02 0.01 0.01 0.00 0.00 0.00 0.00 0.00 0.00 0.00 0.00 0.00 0.00 0.00 0.00 0.00 0.00 0.00 0.00 0.00 0.00 0.00 0.00 0.00 0.00 0.00 0.00 0.00 0.00 0.00
0.00 0.00 0.00 0.00 0.01 0.01 0.00 0.00 0.00 0.00 0.00 0.00 0.01 0.01 0.00 0.00 0.00 0.00 0.00 0.00 0.01 0.02 0.01 0.00 0.00 0.00 0.00 0.00 0.00 0.00 0.00 0.00 0.00 0.00 0.00 0.00 0.00 0.00 0.00 0.00 0.00 0.00 0.00 0.00 0.00 0.00 0.00 0.00 0.00 0.00 0.00 0.00 0.00 0.00
0.00 0.00 0.01 0.01 0.01 0.01 0.00 0.00 0.00 0.00 0.00 0.00 0.00 0.00 0.00 0.00 0.00 0.00 0.00 0.00 0.01 0.01 0.00 0.00 0.00 0.00 0.00 0.00 0.00 0.00 0.00 0.00 0.00 0.00 0.00 0.00 0.00 0.00 0.00 0.00 0.00 0.00 0.00 0.00 0.00 0.00 0.00 0.00 0.00 0.00 0.00 0.00 0.00 0.00
0.00 0.00 0.00 0.00 0.01 0.01 0.00 0.00 0.00 0.00 0.00 0.00 0.00 0.00 0.00 0.01 0.01 0.01 0.01 0.00 0.00 0.00 0.00 0.00 0.00 0.00 0.00 0.00 0.00 0.00 0.00 0.00 0.00 0.00 0.00 0.00 0.00 0.00 0.00 0.00 0.00 0.00 0.00 0.00 0.00 0.00 0.00 0.00 0.00 0.00 0.00 0.00 0.00 0.00
0.00 0.00 0.00 0.00 0.01 0.00 0.00 0.00 0.00 0.00 0.00 0.00 0.01 0.02 0.01 0.01 0.01 0.03 0.03 0.00 0.00 0.00 0.00 0.00 0.00 0.00 0.00 0.00 0.00 0.00 0.00 0.00 0.00 0.00 0.00 0.00 0.00 0.00 0.00 0.00 0.00 0.00 0.00 0.00 0.00 0.00 0.00 0.00 0.00 0.00 0.00 0.00 0.01 0.01
0.00 0.00 0.00 0.01 0.01 0.00 0.00 0.00 0.00 0.00 0.00 0.00 0.02 0.03 0.01 0.03 0.06 0.03 0.02 0.01 0.01 0.01 0.00 0.00 0.00 0.00 0.00 0.00 0.00 0.00 0.00 0.00 0.00 0.00 0.00 0.00 0.00 0.00 0.00 0.00 0.00 0.00 0.00 0.00 0.00 0.00 0.00 0.00 0.00 0.00 0.00 0.00 0.00 0.01
0.00 0.00 0.00 0.00 0.00 0.00 0.00 0.00 0.00 0.00 0.00 0.00 0.00 0.02 0.02 0.01 0.01 0.02 0.01 0.00 0.00 0.00 0.00 0.00 0.00 0.00 0.00 0.00 0.00 0.00 0.00 0.00 0.00 0.00 0.00 0.00 0.00 0.00 0.00 0.00 0.00 0.00 0.00 0.00 0.00 0.00 0.00 0.00 0.00 0.00 0.01 0.01 0.01 0.01
0.00 0.00 0.00 0.00 0.00 0.00 0.00 0.00 0.00 0.00 0.00 0.00 0.00 0.00 0.00 0.00 0.00 0.00 0.00 0.00 0.00 0.00 0.00 0.00 0.00 0.00 0.00 0.00 0.00 0.00 0.00 0.00 0.00 0.00 0.00 0.00 0.00 0.00 0.00 0.00 0.00 0.00 0.00 0.00 0.00 0.00 0.00 0.00 0.00 0.01 0.01 0.01 0.01 0.01
0.00 0.00 0.00 0.00 0.00 0.00 0.00 0.00 0.00 0.00 0.00 0.00 0.00 0.00 0.00 0.00 0.00 0.00 0.00 0.00 0.00 0.01 0.00 0.00 0.00 0.00 0.00 0.00 0.00 0.00 0.00 0.00 0.00 0.00 0.00 0.00 0.00 0.00 0.00 0.00 0.00 0.00 0.00 0.00 0.00 0.00 0.00 0.00 0.00 0.01 0.01 0.01 0.01 0.01
0.00 0.00 0.00 0.00 0.00 0.00 0.00 0.00 0.00 0.00 0.00 0.00 0.00 0.00 0.00 0.00 0.00 0.00 0.00 0.00 0.00 0.01 0.01 0.01 0.00 0.00 0.00 0.00 0.00 0.00 0.00 0.00 0.00 0.00 0.00 0.00 0.00 0.01 0.01 0.01 0.00 0.00 0.00 0.00 0.00 0.00 0.00 0.00 0.00 0.01 0.01 0.01 0.01 0.01
0.00 0.00 0.00 0.00 0.00 0.00 0.00 0.00 0.00 0.00 0.00 0.00 0.00 0.00 0.00 0.00 0.00 0.00 0.00 0.00 0.01 0.01 0.00 0.00 0.00 0.00 0.00 0.00 0.00 0.00 0.00 0.00 0.00 0.00 0.00 0.00 0.00 0.00 0.00 0.01 0.01 0.02 0.00 0.00 0.00 0.00 0.01 0.00 0.00 0.01 0.01 0.01 0.01 0.02
0.00 0.00 0.00 0.00 0.00 0.00 0.00 0.00 0.00 0.00 0.00 0.00 0.00 0.00 0.00 0.00 0.00 0.00 0.00 0.01 0.01 0.00 0.00 0.00 0.00 0.00 0.00 0.00 0.00 0.00 0.00 0.00 0.00 0.00 0.00 0.00 0.00 0.00 0.00 0.00 0.00 0.00 0.00 0.00 0.00 0.01 0.01 0.01 0.00 0.01 0.01 0.02 0.02 0.02
0.00 0.00 0.00 0.00 0.00 0.00 0.00 0.00 0.00 0.00 0.00 0.00 0.00 0.00 0.00 0.00 0.00 0.00 0.00 0.00 0.00 0.00 0.00 0.00 0.00 0.00 0.00 0.00 0.00 0.00 0.00 0.00 0.00 0.00 0.00 0.00 0.00 0.00 0.00 0.00 0.00 0.00 0.00 0.00 0.00 0.01 0.02 0.02 0.01 0.01 0.02 0.02 0.02 0.02
0.00 0.00 0.00 0.00 0.00 0.00 0.00 0.00 0.01 0.00 0.00 0.00 0.00 0.00 0.00 0.00 0.00 0.00 0.00 0.00 0.00 0.01 0.01 0.01 0.00 0.00 0.01 0.00 0.00 0.00 0.00 0.00 0.00 0.00 0.01 0.01 0.00 0.00 0.00 0.00 0.00 0.00 0.00 0.01 0.01 0.02 0.02 0.03 0.03 0.02 0.02 0.02 0.02 0.02
0.00 0.00 0.00 0.00 0.00 0.00 0.01 0.00 0.00 0.00 0.00 0.01 0.01 0.01 0.01 0.00 0.00 0.00 0.00 0.00 0.00 0.00 0.01 0.01 0.01 0.01 0.01 0.01 0.01 0.01 0.01 0.00 0.00 0.00 0.00 0.00 0.00 0.00 0.00 0.00 0.00 0.00 0.01 0.01 0.02 0.02 0.03 0.03 0.02 0.02 0.02 0.02 0.01 0.01
0.00 0.00 0.00 0.00 0.00 0.00 0.00 0.00 0.00 0.00 0.00 0.00 0.00 0.00 0.00 0.00 0.00 0.00 0.00 0.00 0.00 0.00 0.00 0.01 0.01 0.01 0.00 0.01 0.00 0.01 0.01 0.01 0.00 0.00 0.00 0.00 0.00 0.00 0.00 0.00 0.00 0.00 0.01 0.01 0.01 0.02 0.02 0.02 0.02 0.02 0.02 0.02 0.02 0.02
0.00 0.00 0.00 0.00 0.00 0.00 0.00 0.00 0.00 0.00 0.00 0.00 0.00 0.00 0.00 0.00 0.00 0.00 0.00 0.00 0.00 0.00 0.00 0.00 0.00 0.00 0.00 0.00 0.00 0.00 0.01 0.01 0.01 0.00 0.00 0.00 0.00 0.00 0.01 0.01 0.01 0.01 0.01 0.01 0.01 0.01 0.01 0.01 0.02 0.02 0.02 0.02 0.02 0.02
MSLP
991.84 992.90 994.21 995.65 997.00 998.24 999.38 1000.34 1001.29 1002.12 1002.76 1003.35 1003.99 1004.57 1004.65 1004.79 1004.72 1005.34 1007.14 1008.09 1008.22 1008.57 1008.66 1008.02 1006.86 1007.05 1006.96 1007.31 1008.34 1009.50 1010.44 1010.80 1010.34 1010.29 1010.07 1009.36 1008.72 1008.39 1008.18 1008.09 1008.71 1009.42 1009.96 1009.61 1009.26 1008.31 1006.97 1006.88 1007.81 1008.25 1007.58 1007.95 1008.41 1009.16
990.27 991.41 992.99 994.50 996.06 997.43 998.65 999.73 1000.80 1001.71 1002.41 1003.17 1003.80 1004.24 1004.52 1004.27 1005.70 1006.11 1007.42 1008.34 1009.18 1009.27 1009.76 1008.25 1008.02 1008.19 1008.49 1007.98 1007.99 1008.59 1009.15 1008.77 1009.76 1009.07 1008.39 1008.02 1007.80 1007.80 1007.68 1007.64 1007.83 1008.02 1008.13 1007.82 1007.86 1007.11 1006.83 1006.57 1006.95 1007.58 1007.77 1008.00 1008.65 1009.39
989.18 989.95 991.96 993.60 995.31 996.84 998.15 999.34 1000.42 1001.50 1002.26 1002.93 1003.77 1004.43 1004.65 1005.18 1005.76 1005.85 1006.63 1008.25 1009.22 1009.34 1009.68 1009.00 1008.57 1009.01 1009.02 1008.93 1009.23 1009.39 1009.15 1008.53 1008.55 1008.18 1008.38 1007.89 1007.47 1007.31 1007.45 1007.45 1007.29 1007.13 1007.39 1007.19 1007.57 1006.85 1006.65 1007.11 1007.16 1007.25 1007.49 1008.27 1008.89 1009.68
988.11 989.39 991.35 993.09 994.88 996.48 997.87 999.16 1000.24 1001.26 1002.17 1003.01 1003.58 1004.45 1004.82 1005.21 1006.00 1005.80 1006.50 1007.81 1008.29 1008.50 1008.73 1009.06 1008.74 1009.10 1009.72 1009.96 1010.05 1010.28 1009.87 1009.35 1009.46 1008.94 1008.71 1008.45 1007.98 1007.46 1007.40 1007.30 1007.11 1007.04 1007.27 1007.20 1006.87 1007.10 1006.86 1006.80 1007.12 1007.47 1007.68 1008.36 1009.35 1009.97
987.61 989.01 991.12 992.98 994.76 996.40 997.87 999.18 1000.30 1001.27 1002.09 1003.00 1003.68 1004.62 1005.24 1006.01 1006.66 1007.12 1007.69 1008.05 1008.40 1008.06 1007.94 1008.47 1008.88 1009.26 1009.97 1010.22 1010.35 1010.67 1010.62 1010.35 1010.19 1010.07 1009.37 1008.43 1007.91 1007.89 1008.05 1007.83 1006.82 1006.69 1006.67 1006.72 1006.55 1006.78 1007.10 1007.27 1007.57 1008.07 1008.36 1008.69 1009.10 1010.01
987.53 989.15 991.24 993.24 995.04 996.67 998.08 999.41 1000.50 1001.44 1002.32 1003.14 1003.81 1004.72 1005.65 1006.58 1007.26 1008.01 1009.26 1009.54 1009.06 1008.46 1008.16 1008.22 1008.07 1008.83 1009.81 1010.16 1010.56 1011.01 1011.33 1011.16 1010.95 1010.33 1009.60 1008.59 1007.92 1008.06 1007.84 1007.07 1006.83 1006.66 1006.46 1006.87 1006.90 1007.00 1007.05 1007.58 1008.32 1008.57 1008.72 1009.02 1009.38 1009.89
988.16 989.93 992.16 994.01 995.72 997.19 998.57 999.75 1000.81 1001.74 1002.57 1003.41 1004.24 1005.24 1006.19 1006.82 1007.29 1007.60 1007.53 1007.24 1008.65 1008.58 1007.85 1008.11 1008.11 1008.72 1009.38 1010.34 1011.04 1011.38 1011.79 1011.45 1011.53 1010.84 1009.79 1008.97 1008.43 1008.70 1007.73 1006.74 1006.40 1006.46 1006.59 1006.72 1006.87 1007.21 1007.59 1008.05 1008.10 1008.74 1009.20 1009.52 1010.02 1010.14
989.76 991.58 993.41 995.14 996.64 998.04 999.27 1000.33 1001.27 1002.20 1003.13 1004.08 1004.96 1005.91 1006.85 1007.68 1008.08 1007.67 1007.61 1007.91 1008.90 1008.32 1008.04 1007.27 1007.79 1008.83 1009.56 1010.30 1010.73 1011.10 1011.17 1011.49 1011.52 1011.03 1010.33 1009.04 1008.56 1008.29 1006.97 1006.52 1006.29 1006.17 1006.17 1006.34 1006.77 1007.12 1007.40 1007.90 1008.31 1008.98 1009.37 1009.80 1010.13 1010.37
992.14 993.67 995.19 996.58 997.90 999.17 1000.23 1001.18 1002.09 1003.10 1003.94 1004.72 1005.70 1006.80 1007.87 1008.23 1008.22 1007.85 1008.33 1008.82 1009.20 1009.25 1007.54 1007.11 1007.04 1007.93 1009.39 1009.49 1009.91 1010.24 1010.82 1010.80 1010.79 1010.33 1009.49 1009.19 1007.84 1006.50 1006.02 1005.79 1005.42 1005.33 1005.41 1005.96 1006.54 1007.05 1007.82 1008.33 1008.53 1009.09 1009.54 1009.90 1010.12 1010.40
994.71 995.90 997.08 998.28 999.41 1000.45 1001.29 1002.25 1003.28 1004.19 1004.77 1005.65 1006.72 1008.12 1008.22 1007.66 1007.77 1008.46 1009.64 1009.40 1008.91 1007.88 1007.43 1006.88 1006.69 1007.46 1008.69 1009.12 1009.33 1010.15 1010.51 1009.88 1009.24 1008.56 1008.54 1007.45 1005.94 1005.34 1004.97 1004.57 1004.45 1004.55 1005.29 1005.75 1006.52 1007.36 1007.87 1008.29 1008.65 1009.12 1009.73 1010.16 1010.58 1010.90
997.10 997.99 998.97 999.81 1000.65 1001.61 1002.51 1003.44 1003.65 1004.97 1005.98 1006.13 1006.87 1007.07 1007.84 1007.89 1008.04 1008.05 1008.55 1008.11 1007.73 1007.40 1006.97 1006.75 1006.38 1006.98 1008.00 1008.29 1008.87 1009.45 1009.12 1008.40 1007.51 1007.12 1006.72 1005.59 1004.47 1003.87 1003.91 1003.91 1004.28 1004.80 1005.22 1006.11 1006.80 1007.36 1007.89 1008.34 1008.75 1009.46 1010.37 1011.06 1011.69 1012.16
999.33 999.99 1000.67 1001.34 1002.06 1002.85 1003.54 1004.51 1004.32 1004.16 1004.37 1004.74 1005.68 1007.13 1007.85 1007.79 1007.39 1007.34 1007.25 1007.00 1006.46 1005.74 1005.65 1005.74 1005.95 1006.52 1007.79 1008.30 1008.56 1009.20 1008.41 1007.81 1006.67 1006.53 1006.11 1004.42 1003.50 1003.85 1004.12 1004.32 1004.98 1005.78 1006.30 1006.97 1007.65 1008.19 1008.76 1009.27 1009.68 1010.29 1011.15 1011.97 1012.75 1013.45
1001.44 1001.83 1002.30 1002.93 1003.57 1004.11 1004.57 1004.76 1005.24 1004.60 1004.79 1005.14 1005.15 1006.18 1006.31 1007.11 1006.84 1006.46 1006.26 1005.97 1005.42 1005.05 1005.37 1005.47 1006.29 1007.20 1008.45 1008.54 1008.22 1008.29 1007.38 1006.66 1006.35 1006.20 1005.00 1003.94 1004.68 1005.08 1005.43 1005.97 1006.54 1006.97 1007.46 1008.14 1008.71 1009.37 1010.01 1010.66 1011.40 1011.88 1012.72 1013.28 1014.05 1014.74
1003.37 1003.63 1003.91 1004.32 1004.85 1005.10 1005.42 1005.41 1005.50 1005.23 1004.61 1004.21 1004.61 1005.70 1005.63 1006.04 1005.58 1005.14 1005.16 1004.92 1004.95 1005.02 1005.31 1005.61 1006.73 1007.01 1007.76 1007.58 1007.80 1007.39 1006.98 1006.42 1006.12 1005.48 1004.49 1004.54 1005.57 1006.40 1006.95 1007.44 1007.78 1008.35 1009.03 1009.52 1010.34 1011.01 1011.68 1012.27 1012.83 1013.26 1013.81 1014.40 1014.82 1015.32
1004.78 1004.95 1005.18 1005.59 1005.90 1006.02 1006.00 1005.88 1005.79 1005.50 1004.97 1004.65 1004.72 1005.19 1005.52 1005.57 1005.76 1005.87 1005.86 1005.79 1005.46 1005.19 1005.23 1005.61 1006.15 1006.50 1006.92 1007.27 1007.12 1007.09 1007.03 1006.13 1005.37 1004.73 1005.47 1006.34 1007.09 1007.72 1008.23 1008.66 1009.44 1010.06 1010.52 1011.08 1011.64 1012.05 1012.52 1013.05 1013.49 1014.15 1014.60 1014.96 1015.31 1015.82
1006.08 1006.25 1006.42 1006.58 1006.62 1006.57 1006.56 1006.38 1005.98 1005.29 1005.24 1005.26 1005.41 1005.84 1005.93 1006.06 1006.01 1006.18 1006.11 1005.86 1005.52 1005.08 1005.19 1005.15 1005.53 1006.00 1006.12 1006.03 1006.10 1005.91 1005.62 1005.29 1005.51 1006.49 1007.25 1007.76 1008.31 1008.77 1009.25 1009.81 1010.44 1010.99 1011.41 1011.88 1012.24 1012.60 1013.05 1013.53 1013.93 1014.41 1014.95 1015.35 1015.71 1016.04
1006.60 1006.77 1007.21 1007.28 1007.18 1007.05 1006.69 1006.10 1005.74 1005.63 1005.59 1005.80 1006.07 1006.45 1006.49 1006.40 1006.24 1006.00 1006.11 1005.83 1005.21 1005.12 1004.70 1004.71 1004.75 1004.83 1005.11 1005.03 1005.01 1004.98 1005.59 1006.36 1007.14 1007.59 1007.99 1008.33 1009.05 1009.48 1009.96 1010.49 1011.06 1011.55 1011.93 1012.32 1012.70 1013.04 1013.47 1013.86 1014.15 1014.53 1014.99 1015.55 1015.88 1016.27
1006.42 1007.11 1007.45 1007.40 1007.36 1007.18 1006.81 1006.45 1006.25 1006.21 1006.01 1006.07 1006.16 1006.44 1006.57 1006.71 1006.62 1006.38 1006.11 1005.78 1005.22 1004.51 1004.17 1003.82 1004.04 1004.34 1004.62 1004.62 1004.75 1005.81 1006.83 1007.53 1008.01 1008.31 1008.64 1009.22 1009.63 1010.05 1010.49 1010.96 1011.51 1011.92 1012.32 1012.70 1012.97 1013.36 1013.69 1013.86 1013.97 1014.30 1014.81 1015.42 1015.83 1016.32
1007.26 1007.18 1007.56 1007.71 1007.65 1007.64 1006.94 1006.63 1006.53 1005.98 1006.04 1006.27 1006.37 1006.52 1006.65 1006.69 1006.56 1006.36 1006.04 1005.56 1004.84 1004.42 1004.27 1004.28 1004.55 1004.46 1004.95 1005.45 1006.04 1006.62 1007.28 1007.67 1008.29 1008.79 1009.41 1009.83 1010.12 1010.55 1010.96 1011.43 1011.89 1012.27 1012.62 1012.91 1013.09 1013.13 1013.34 1013.47 1013.55 1014.02 1014.50 1015.01 1015.29 1015.88
1007.48 1007.60 1007.86 1007.96 1008.28 1007.73 1006.92 1006.54 1006.60 1006.04 1005.71 1006.08 1006.25 1006.32 1006.46 1006.56 1006.65 1006.35 1005.81 1005.41 1004.92 1004.66 1004.70 1004.94 1005.37 1006.09 1006.41 1006.76 1006.86 1006.97 1007.42 1007.86 1008.38 1008.86 1009.46 1010.01 1010.48 1010.90 1011.28 1011.58 1011.81 1012.33 1012.61 1012.88 1013.01 1013.11 1013.24 1013.44 1013.63 1013.99 1014.39 1014.76 1015.20 1015.72
1007.82 1007.81 1007.98 1008.03 1008.16 1008.08 1007.23 1006.52 1006.15 1006.04 1005.93 1006.01 1006.51 1006.56 1006.41 1006.67 1006.50 1006.37 1006.12 1005.93 1005.58 1005.37 1005.65 1006.24 1006.77 1007.29 1007.43 1007.56 1007.58 1007.69 1007.98 1008.13 1008.40 1008.75 1009.04 1009.83 1010.46 1010.78 1011.25 1011.57 1011.90 1012.01 1012.18 1012.42 1012.63 1013.01 1013.20 1013.30 1013.73 1014.30 1014.82 1015.10 1015.43 1015.80
1007.31 1007.81 1007.60 1008.19 1007.88 1007.49 1006.95 1006.75 1006.36 1006.16 1006.07 1006.04 1006.43 1006.57 1006.24 1006.24 1006.37 1006.49 1006.51 1005.93 1005.94 1006.32 1006.46 1006.82 1007.21 1007.58 1007.83 1008.00 1008.04 1008.17 1008.43 1008.70 1009.01 1009.35 1009.62 1010.04 1010.43 1010.79 1011.12 1011.48 1011.71 1011.91 1012.08 1012.44 1012.60 1013.03 1013.35 1013.63 1014.10 1014.61 1014.97 1015.33 1015.72 1016.09
1007.60 1007.54 1007.38 1007.39 1007.57 1007.22 1007.01 1006.85 1006.39 1006.10 1005.97 1005.96 1006.22 1006.22 1006.20 1006.14 1006.32 1006.79 1006.45 1006.28 1006.59 1006.96 1006.84 1007.07 1007.46 1007.81 1008.19 1008.62 1008.79 1008.90 1009.03 1009.00 1009.14 1009.44 1009.85 1010.04 1010.44 1010.82 1011.08 1011.40 1011.64 1011.91 1012.13 1012.41 1012.67 1013.15 1013.54 1013.97 1014.54 1014.77 1015.12 1015.53 1015.81 1016.25
1007.74 1007.78 1007.77 1007.54 1007.41 1007.31 1007.44 1006.84 1006.45 1006.29 1006.23 1006.11 1006.03 1006.08 1006.09 1006.14 1006.36 1006.16 1005.99 1006.22 1006.85 1007.18 1007.29 1007.63 1007.92 1008.36 1008.70 1008.82 1008.85 1009.10 1009.25 1009.28 1009.68 1010.04 1010.10 1010.23 1010.35 1010.68 1010.97 1011.21 1011.53 1011.82 1012.12 1012.42 1012.84 1013.22 1013.72 1014.12 1014.53 1014.80 1015.10 1015.37 1015.72 1016.10
1008.00 1008.78 1008.48 1007.97 1007.80 1007.66 1007.33 1007.01 1006.78 1006.46 1006.24 1006.39 1006.39 1006.18 1006.16 1006.25 1006.02 1005.86 1005.76 1006.23 1006.83 1007.11 1007.48 1007.82 1007.97 1008.11 1008.35 1008.72 1009.15 1009.46 1009.80 1009.61 1009.67 1010.00 1010.45 1010.48 1010.69 1010.90 1011.18 1011.35 1011.58 1011.93 1012.30 1012.67 1013.01 1013.33 1013.67 1014.04 1014.45 1014.69 1015.00 1015.24 1015.53 1015.93
1008.04 1008.77 1008.60 1008.12 1007.84 1007.58 1007.25 1007.03 1006.84 1006.65 1006.61 1006.62 1006.53 1006.56 1006.51 1006.24 1006.14 1005.69 1005.74 1006.29 1006.78 1007.14 1007.56 1007.81 1007.91 1008.10 1008.39 1008.66 1009.09 1009.48 1009.88 1010.21 1010.17 1010.35 1010.67 1010.77 1010.90 1011.09 1011.26 1011.48 1011.77 1012.06 1012.21 1012.45 1012.89 1013.26 1013.62 1014.02 1014.28 1014.64 1014.96 1015.32 1015.68 1015.97
1008.21 1008.52 1008.53 1008.66 1008.42 1008.09 1007.80 1007.66 1007.49 1007.19 1006.90 1006.68 1006.67 1006.83 1006.66 1006.35 1005.81 1006.21 1006.97 1007.32 1007.43 1007.68 1007.77 1007.92 1008.05 1008.11 1008.22 1008.84 1009.41 1009.96 1010.42 1010.68 1010.86 1011.05 1011.18 1011.41 1011.55 1011.71 1011.92 1011.99 1011.93 1012.46 1012.42 1012.75 1013.01 1013.19 1013.43 1013.83 1014.13 1014.54 1014.86 1015.32 1015.77 1016.10
1008.57 1008.66 1008.56 1008.66 1008.41 1008.44 1008.06 1007.83 1007.54 1007.12 1007.03 1007.25 1007.33 1006.87 1006.65 1006.41 1006.67 1007.50 1007.93 1008.25 1008.29 1008.36 1008.42 1008.56 1008.59 1008.61 1008.88 1009.38 1009.93 1010.46 1010.90 1011.30 1011.71 1011.76 1011.80 1011.88 1012.07 1012.33 1012.53 1012.56 1012.73 1013.02 1012.88 1012.99 1013.13 1013.25 1013.37 1013.69 1014.06 1014.48 1014.89 1015.36 1015.92 1016.39
1008.81 1009.04 1008.99 1008.77 1008.63 1008.28 1008.07 1007.89 1007.58 1007.47 1007.58 1007.44 1007.10 1006.87 1006.99 1007.53 1008.20 1008.38 1008.67 1008.74 1008.78 1008.72 1008.84 1009.06 1009.44 1009.64 1009.92 1010.17 1010.49 1010.79 1011.03 1011.27 1011.45 1011.50 1011.66 1011.61 1011.93 1012.34 1012.66 1012.78 1012.85 1012.96 1013.06 1013.17 1013.49 1013.49 1013.51 1013.74 1014.12 1014.53 1015.08 1015.63 1016.23 1016.75
1009.05 1009.36 1008.89 1008.82 1008.54 1007.92 1007.94 1008.29 1008.14 1008.21 1008.07 1007.87 1007.70 1007.58 1007.63 1008.02 1008.54 1009.04 1009.03 1008.99 1008.92 1008.81 1008.86 1009.03 1009.47 1009.71 1009.86 1010.11 1010.49 1010.94 1011.23 1011.39 1011.50 1011.54 1011.60 1011.72 1011.99 1012.49 1012.80 1012.98 1013.10 1013.25 1013.29 1013.18 1013.34 1013.71 1014.03 1014.26 1014.69 1015.16 1015.67 1016.21 1016.68 1017.21
1009.19 1009.17 1008.88 1008.57 1008.12 1008.10 1008.30 1008.52 1008.50 1008.42 1008.22 1007.83 1007.77 1007.82 1007.66 1008.05 1008.47 1008.67 1008.85 1008.92 1009.00 1009.08 1009.15 1009.24 1009.42 1009.61 1009.77 1010.07 1010.30 1010.69 1011.02 1011.45 1011.66 1011.90 1012.14 1012.34 1012.58 1012.76 1013.04 1013.26 1013.39 1013.48 1013.53 1013.65 1013.84 1014.07 1014.41 1014.73 1015.13 1015.64 1016.18 1016.72 1017.38 1017.95
1008.92 1008.72 1008.58 1008.28 1008.01 1008.35 1008.63 1008.39 1008.22 1008.05 1007.64 1007.56 1007.44 1007.61 1008.07 1008.17 1007.84 1007.92 1008.45 1008.85 1008.94 1008.92 1008.93 1009.08 1009.23 1009.60 1010.19 1010.51 1010.70 1010.96 1011.37 1011.42 1011.64 1012.03 1012.47 1012.54 1012.73 1013.10 1013.40 1013.60 1013.74 1013.77 1013.88 1014.01 1014.18 1014.46 1014.78 1015.19 1015.68 1016.27 1017.02 1017.68 1018.29 1018.97
1008.56 1008.41 1008.31 1008.17 1007.92 1008.01 1008.29 1008.46 1007.91 1007.60 1007.52 1007.28 1007.09 1007.30 1007.60 1007.65 1007.31 1007.71 1008.92 1008.95 1008.76 1008.63 1008.74 1009.28 1009.80 1010.25 1010.74 1010.92 1011.04 1011.27 1011.52 1011.84 1012.20 1012.47 1012.68 1012.88 1013.18 1013.48 1013.69 1013.90 1014.05 1014.20 1014.37 1014.54 1014.87 1015.24 1015.64 1016.16 1016.75 1017.42 1018.16 1018.92 1019.63 1020.38
Thickness
5340 5334 5325 5315 5304 5294 5286 5283 5283 5285 5290 5296 5301 5310 5328 5341 5352 5362 5357 5363 5372 5384 5388 5403 5421 5423 5434 5438 5430 5429 5417 5418 5436 5435 5447 5463 5472 5480 5482 5491 5480 5476 5469 5476 5482 5486 5494 5514 5498 5491 5504 5502 5500 5494
5343 5338 5330 5319 5308 5298 5289 5284 5283 5286 5290 5296 5304 5315 5330 5342 5343 5348 5346 5353 5358 5367 5370 5392 5401 5408 5411 5421 5429 5428 5428 5440 5433 5448 5461 5469 5469 5473 5478 5473 5487 5479 5484 5488 5490 5494 5504 5507 5502 5499 5498 5495 5490 5486
5340 5341 5331 5323 5312 5301 5292 5285 5284 5285 5289 5297 5303 5310 5322 5331 5336 5343 5347 5346 5349 5360 5367 5380 5389 5394 5400 5407 5408 5412 5421 5433 5437 5449 5449 5458 5460 5475 5467 5472 5477 5485 5487 5485 5483 5493 5497 5494 5496 5495 5493 5485 5481 5476
5338 5338 5330 5324 5314 5303 5294 5286 5286 5288 5290 5295 5303 5308 5317 5327 5328 5341 5347 5348 5354 5366 5366 5370 5386 5387 5389 5392 5394 5395 5404 5417 5423 5433 5438 5442 5449 5465 5464 5469 5471 5477 5477 5477 5481 5477 5489 5491 5487 5484 5484 5478 5468 5464
5341 5338 5330 5323 5313 5303 5294 5286 5283 5284 5291 5296 5303 5306 5313 5316 5320 5326 5332 5340 5346 5360 5369 5374 5379 5383 5382 5383 5385 5384 5389 5401 5407 5412 5423 5435 5448 5451 5450 5455 5465 5473 5472 5472 5474 5479 5476 5478 5477 5472 5470 5467 5464 5453
5348 5340 5329 5320 5311 5301 5293 5285 5282 5283 5288 5296 5302 5305 5308 5310 5314 5319 5315 5326 5340 5355 5365 5368 5386 5385 5380 5380 5378 5374 5376 5386 5394 5405 5415 5433 5442 5441 5438 5450 5461 5465 5471 5468 5468 5472 5474 5470 5462 5461 5460 5457 5452 5446
5350 5339 5326 5316 5307 5298 5289 5283 5281 5282 5289 5295 5301 5302 5305 5311 5318 5329 5346 5355 5344 5351 5368 5369 5378 5382 5382 5375 5370 5368 5367 5377 5381 5392 5407 5422 5430 5426 5434 5444 5458 5460 5461 5462 5465 5463 5460 5458 5459 5451 5445 5441 5433 5434
5345 5333 5322 5311 5302 5293 5286 5283 5282 5282 5285 5290 5295 5298 5303 5305 5313 5328 5337 5342 5339 5351 5364 5376 5379 5375 5377 5369 5368 5370 5372 5373 5373 5379 5391 5414 5423 5423 5425 5441 5452 5456 5459 5460 5458 5458 5458 5454 5450 5441 5436 5431 5426 5424
5333 5323 5313 5304 5296 5288 5285 5284 5283 5281 5282 5288 5293 5296 5298 5304 5312 5327 5330 5332 5336 5342 5363 5377 5385 5381 5374 5378 5379 5380 5374 5376 5378 5383 5396 5402 5415 5425 5434 5445 5452 5456 5459 5456 5455 5453 5445 5439 5439 5432 5427 5424 5423 5421
5321 5312 5304 5297 5290 5288 5287 5286 5284 5282 5285 5289 5292 5290 5300 5312 5319 5321 5318 5325 5337 5352 5363 5376 5392 5383 5378 5373 5380 5378 5369 5386 5397 5403 5400 5409 5431 5446 5451 5456 5458 5459 5454 5454 5445 5436 5435 5431 5430 5427 5421 5419 5415 5412
5310 5303 5296 5294 5295 5293 5292 5290 5295 5291 5289 5296 5300 5308 5307 5314 5321 5327 5325 5339 5347 5350 5366 5376 5391 5384 5382 5379 5381 5380 5391 5399 5415 5416 5423 5435 5446 5457 5458 5457 5455 5452 5452 5445 5441 5437 5432 5429 5426 5419 5409 5402 5396 5392
5304 5297 5297 5299 5298 5297 5298 5297 5305 5314 5319 5324 5322 5315 5314 5322 5331 5335 5343 5353 5361 5371 5380 5382 5390 5392 5379 5380 5382 5375 5393 5401 5413 5417 5418 5439 5459 5453 5449 5450 5443 5436 5434 5430 5425 5421 5416 5413 5411 5406 5397 5389 5380 5371
5303 5301 5301 5301 5301 5301 5303 5307 5308 5320 5324 5327 5336 5331 5338 5331 5333 5342 5345 5360 5367 5379 5378 5384 5374 5374 5363 5372 5385 5383 5396 5410 5418 5407 5428 5452 5438 5433 5429 5424 5420 5420 5418 5414 5409 5404 5399 5394 5386 5383 5373 5366 5359 5352
5304 5304 5306 5306 5306 5308 5309 5313 5317 5324 5337 5346 5345 5331 5349 5343 5359 5371 5371 5377 5375 5374 5374 5377 5365 5374 5370 5383 5381 5390 5401 5413 5405 5413 5438 5443 5425 5411 5408 5407 5407 5403 5393 5394 5387 5379 5373 5368 5364 5362 5357 5351 5347 5341
5306 5307 5308 5309 5310 5312 5315 5319 5323 5330 5340 5347 5355 5353 5352 5358 5357 5354 5355 5357 5364 5371 5376 5378 5380 5384 5383 5380 5390 5389 5387 5404 5424 5439 5426 5409 5402 5396 5392 5390 5379 5373 5370 5368 5367 5365 5363 5358 5356 5349 5344 5341 5337 5331
5315 5314 5315 5314 5316 5319 5321 5325 5332 5341 5344 5347 5350 5348 5351 5351 5353 5352 5355 5358 5369 5378 5382 5390 5385 5379 5382 5395 5396 5403 5419 5426 5429 5403 5391 5388 5383 5380 5377 5372 5365 5363 5363 5359 5359 5358 5354 5350 5347 5342 5335 5332 5327 5322
5324 5325 5321 5322 5323 5326 5330 5338 5343 5343 5347 5349 5349 5348 5352 5353 5360 5366 5362 5365 5379 5380 5385 5390 5386 5392 5404 5407 5413 5423 5419 5403 5386 5384 5383 5382 5373 5367 5364 5362 5359 5356 5355 5353 5350 5348 5344 5340 5337 5333 5328 5322 5318 5313
5338 5331 5329 5330 5331 5334 5338 5344 5347 5348 5351 5356 5357 5358 5355 5353 5357 5360 5363 5368 5379 5388 5397 5403 5408 5404 5401 5409 5421 5400 5382 5376 5374 5374 5374 5369 5364 5362 5360 5357 5353 5350 5347 5344 5342 5338 5334 5332 5332 5329 5323 5317 5312 5306
5340 5340 5336 5336 5337 5339 5346 5348 5351 5357 5356 5355 5358 5357 5356 5356 5357 5361 5367 5373 5386 5392 5396 5399 5395 5407 5403 5397 5384 5381 5374 5374 5369 5366 5359 5357 5357 5354 5352 5348 5344 5341 5338 5335 5335 5336 5333 5331 5330 5325 5320 5314 5311 5304
5340 5339 5337 5337 5335 5342 5350 5353 5353 5359 5364 5360 5359 5360 5359 5358 5354 5356 5367 5375 5383 5386 5388 5389 5388 5377 5375 5369 5374 5375 5372 5370 5365 5363 5357 5353 5350 5346 5343 5342 5342 5335 5333 5330 5330 5329 5327 5325 5322 5318 5313 5309 5304 5298
5337 5338 5336 5337 5336 5337 5346 5352 5357 5359 5359 5358 5350 5351 5356 5352 5357 5358 5359 5364 5370 5375 5372 5364 5357 5354 5357 5358 5360 5361 5359 5361 5360 5360 5359 5350 5345 5344 5340 5337 5334 5334 5332 5329 5327 5322 5319 5319 5313 5307 5301 5298 5294 5289
5340 5335 5339 5333 5337 5341 5347 5347 5352 5354 5356 5356 5351 5347 5356 5357 5356 5354 5352 5363 5365 5358 5359 5354 5352 5350 5350 5351 5353 5353 5352 5351 5349 5346 5345 5342 5340 5337 5334 5331 5329 5326 5325 5320 5319 5313 5311 5307 5302 5296 5292 5288 5283 5278
5334 5336 5339 5339 5334 5337 5342 5343 5348 5352 5351 5353 5352 5352 5352 5355 5354 5345 5352 5356 5351 5348 5352 5352 5349 5347 5344 5341 5341 5342 5342 5344 5344 5342 5339 5339 5334 5330 5328 5325 5322 5318 5316 5313 5311 5305 5301 5296 5290 5287 5283 5278 5274 5269
5330 5328 5327 5331 5334 5335 5329 5336 5344 5345 5345 5348 5352 5348 5350 5350 5349 5354 5360 5357 5345 5342 5343 5340 5340 5335 5334 5335 5337 5336 5336 5337 5332 5329 5330 5330 5329 5326 5323 5320 5316 5313 5309 5306 5301 5297 5291 5287 5282 5279 5275 5272 5267 5263
5330 5317 5320 5324 5325 5325 5329 5330 5329 5339 5339 5337 5337 5342 5344 5344 5348 5353 5358 5349 5340 5339 5336 5334 5335 5336 5334 5331 5328 5327 5324 5328 5328 5325 5320 5320 5318 5316 5314 5312 5309 5304 5300 5295 5291 5287 5284 5279 5274 5271 5267 5264 5261 5255
5322 5309 5318 5321 5324 5326 5331 5330 5329 5330 5331 5328 5332 5333 5334 5338 5340 5352 5358 5342 5338 5334 5330 5329 5330 5330 5328 5328 5324 5321 5318 5316 5317 5315 5312 5311 5309 5307 5306 5303 5299 5295 5292 5289 5284 5279 5275 5270 5267 5262 5258 5254 5249 5246
5313 5311 5311 5310 5311 5315 5317 5316 5319 5322 5322 5325 5326 5322 5327 5334 5347 5345 5325 5322 5324 5322 5323 5324 5324 5325 5326 5320 5315 5310 5307 5305 5304 5301 5299 5296 5295 5293 5290 5290 5291 5282 5281 5276 5273 5270 5267 5262 5258 5253 5250 5245 5240 5236
5305 5301 5304 5302 5305 5304 5306 5309 5312 5317 5318 5315 5311 5317 5324 5335 5336 5315 5310 5308 5310 5311 5312 5311 5313 5314 5312 5308 5303 5298 5294 5290 5286 5286 5285 5284 5281 5278 5275 5273 5270 5266 5267 5264 5261 5259 5257 5254 5250 5246 5242 5237 5231 5226
5298 5293 5293 5289 5291 5299 5301 5303 5307 5308 5305 5306 5312 5317 5318 5308 5299 5300 5299 5299 5300 5302 5302 5300 5297 5296 5293 5292 5289 5287 5285 5283 5281 5281 5278 5280 5275 5269 5264 5262 5260 5258 5256 5254 5249 5249 5248 5245 5242 5238 5233 5228 5222 5217
5290 5283 5290 5285 5283 5296 5297 5290 5291 5289 5292 5294 5297 5299 5300 5295 5290 5286 5288 5290 5293 5295 5295 5294 5289 5288 5287 5286 5282 5276 5274 5272 5271 5271 5271 5270 5265 5258 5253 5251 5249 5247 5246 5247 5244 5241 5237 5235 5231 5227 5222 5218 5213 5208
5281 5279 5281 5285 5290 5288 5282 5279 5279 5279 5280 5285 5287 5287 5293 5288 5283 5283 5282 5283 5283 5283 5283 5283 5282 5281 5281 5278 5276 5272 5269 5263 5260 5257 5254 5252 5249 5247 5244 5242 5240 5239 5238 5236 5234 5232 5229 5226 5223 5218 5213 5208 5201 5195
5277 5276 5276 5277 5283 5274 5269 5272 5273 5274 5279 5279 5282 5281 5277 5279 5286 5285 5277 5274 5274 5276 5277 5277 5277 5274 5267 5264 5262 5260 5255 5255 5252 5248 5244 5243 5241 5238 5235 5233 5231 5231 5229 5227 5226 5224 5221 5218 5213 5207 5200 5193 5187 5179
5272 5271 5270 5269 5272 5269 5265 5260 5269 5272 5271 5274 5278 5277 5276 5278 5286 5280 5263 5264 5269 5272 5272 5267 5262 5258 5255 5253 5253 5250 5247 5244 5240 5237 5235 5233 5230 5227 5225 5224 5222 5220 5219 5217 5214 5211 5207 5203 5197 5191 5183 5175 5168 5160